Location: Dackenheim
(49.5215°N, 8.1854°E)
Time: 22:17:52
(UTC+00:00)

BlueWalker 3 - Pass Details

Date: 23 January 2026
Orbit: 450 x 461 km, 53.2° (Epoch: 11 February)

Event Time Altitude Azimuth Distance (km) Brightness Sun altitude
Rises 17:46:17 0° 225° (SW) 2,448 6.4 -15.7°
Reaches altitude 10° 17:48:27 10° 219° (SW) 1,578 5.2 -16.0°
Maximum altitude 17:51:51 44° 146° (SE) 633 2.2 -16.6°
Enters shadow 17:52:37 37° 110° (ESE) 713 2.2 -16.7°
